| time (UTC) | temp F | wind direction | speed knots | gust knots | rain 1hr in | rain 24hr in | rain mn in | humidity % | barometer mb |
| 20260831233011 | 82 | 138 | 0.0 | 0.9 | 0.00 | 0.00 | 0.00 | 36 | 1006.6 |
| 20260831231519 | 81 | 167 | 0.0 | 0.0 | 0.00 | 0.00 | 0.00 | 36 | 1006.6 |
| 20260831230056 | 82 | 212 | 0.0 | 0.9 | 0.00 | 0.00 | 0.00 | 39 | 1006.7 |
| 20260831224619 | 81 | 161 | 0.0 | 1.7 | 0.00 | 0.00 | 0.00 | 39 | 1006.9 |
| 20260831223037 | 81 | 232 | 0.0 | 0.9 | 0.00 | 0.00 | 0.00 | 40 | 1007.0 |
| 20260831221547 | 81 | 154 | 0.0 | 0.9 | 0.00 | 0.00 | 0.00 | 39 | 1007.1 |
| 20260831220032 | 80 | 161 | 0.0 | 0.0 | 0.00 | 0.00 | 0.00 | 44 | 1007.3 |
| 20260831214535 | 80 | 149 | 0.0 | 0.9 | 0.00 | 0.00 | 0.00 | 41 | 1007.3 |
| 20260831213026 | 79 | 148 | 0.0 | 0.9 | 0.00 | 0.00 | 0.00 | 45 | 1007.5 |
| 20260831211523 | 79 | 150 | 0.0 | 0.0 | 0.00 | 0.00 | 0.00 | 47 | 1007.7 |
| 20260831210020 | 79 | 184 | 0.0 | 0.9 | 0.00 | 0.00 | 0.00 | 46 | 1007.8 |
| 20260831204520 | 79 | 130 | 0.0 | 1.7 | 0.00 | 0.00 | 0.00 | 47 | 1007.9 |
| 20260831203008 | 78 | 131 | 0.0 | 0.9 | 0.00 | 0.00 | 0.00 | 46 | 1008.1 |
| 20260831201502 | 76 | 153 | 0.0 | 0.9 | 0.00 | 0.00 | 0.00 | 46 | 1008.3 |
| 20260831200057 | 75 | 323 | 0.0 | 2.6 | 0.00 | 0.00 | 0.00 | 49 | 1008.4 |
| 20260831194600 | 73 | 302 | 0.0 | 1.7 | 0.00 | 0.00 | 0.00 | 49 | 1008.7 |
| 20260831193057 | 73 | 176 | 0.0 | 2.6 | 0.00 | 0.00 | 0.00 | 51 | 1008.7 |
| 20260831191551 | 72 | 186 | 0.0 | 2.6 | 0.00 | 0.00 | 0.00 | 52 | 1009.0 |
| 20260831190046 | 71 | 276 | 0.0 | 1.7 | 0.00 | 0.00 | 0.00 | 55 | 1009.2 |
| 20260831184542 | 70 | 155 | 0.0 | 0.9 | 0.00 | 0.00 | 0.00 | 56 | 1009.4 |
| 20260831183041 | 70 | 184 | 0.0 | 1.7 | 0.00 | 0.00 | 0.00 | 57 | 1009.5 |
| 20260831181527 | 68 | 148 | 0.0 | 0.9 | 0.00 | 0.00 | 0.00 | 61 | 1009.7 |
| 20260831180032 | 68 | 191 | 0.0 | 1.7 | 0.00 | 0.00 | 0.00 | 61 | 1009.9 |
| 20260831174526 | 67 | 162 | 0.0 | 1.7 | 0.00 | 0.00 | 0.00 | 64 | 1010.0 |
| 20260831173035 | 66 | 161 | 0.0 | 0.9 | 0.00 | 0.00 | 0.00 | 65 | 1010.1 |
| 20260831171523 | 65 | 203 | 0.0 | 0.9 | 0.00 | 0.00 | 0.00 | 68 | 1010.2 |
| 20260831170022 | 64 | 146 | 0.0 | 0.9 | 0.00 | 0.00 | 0.00 | 70 | 1010.2 |
| 20260831164522 | 63 | 129 | 0.0 | 1.7 | 0.00 | 0.00 | 0.00 | 72 | 1010.4 |
| 20260831163020 | 61 | 151 | 0.0 | 0.9 | 0.00 | 0.00 | 0.00 | 76 | 1010.4 |
| 20260831161508 | 60 | 188 | 0.0 | 1.7 | 0.00 | 0.00 | 0.00 | 78 | 1010.5 |
| 20260831160013 | 59 | 159 | 0.0 | 1.7 | 0.00 | 0.00 | 0.00 | 79 | 1010.6 |
| 20260831154507 | 58 | 142 | 0.0 | 1.7 | 0.00 | 0.00 | 0.00 | 81 | 1010.6 |
| 20260831153006 | 57 | 179 | 0.0 | 0.9 | 0.00 | 0.00 | 0.00 | 83 | 1010.6 |
| 20260831151504 | 56 | 176 | 0.0 | 0.9 | 0.00 | 0.00 | 0.00 | 85 | 1010.7 |
| 20260831150007 | 55 | 163 | 0.0 | 0.9 | 0.00 | 0.00 | 0.00 | 87 | 1010.8 |
| 20260831144502 | 54 | 158 | 0.0 | 0.0 | 0.00 | 0.00 | 0.00 | 89 | 1010.8 |
| 20260831143113 | 0 | 0.0 | 0.0 | 0.00 | 0.00 | 0.00 | 1010.8 | ||
| 20260831141537 | 0 | 0.0 | 0.0 | 0.00 | 0.00 | 0.00 | 1010.8 | ||
| 20260831140035 | 0 | 0.0 | 0.0 | 0.00 | 0.00 | 0.00 | 1010.9 | ||
| 20260831134521 | 0 | 0.0 | 0.0 | 0.00 | 0.00 | 0.00 | 1010.8 | ||
| 20260831133013 | 0 | 0.0 | 0.0 | 0.00 | 0.00 | 0.00 | 1011.0 | ||
| 20260831131508 | 0 | 0.0 | 0.0 | 0.00 | 0.00 | 0.00 | 1011.0 | ||
| 20260831130004 | 0 | 0.0 | 0.0 | 0.00 | 0.00 | 0.00 | 1011.1 | ||
| 20260831124604 | 0 | 0.0 | 0.0 | 0.00 | 0.00 | 0.00 | 1011.1 | ||
| 20260831123059 | 53 | 153 | 0.0 | 0.0 | 0.00 | 0.00 | 0.00 | 88 | 1011.2 |
| 20260831121604 | 54 | 158 | 0.0 | 0.0 | 0.00 | 0.00 | 0.00 | 88 | 1011.3 |
| 20260831120054 | 54 | 158 | 0.0 | 0.0 | 0.00 | 0.00 | 0.00 | 88 | 1011.4 |
| 20260831114540 | 54 | 158 | 0.0 | 0.0 | 0.00 | 0.00 | 0.00 | 87 | 1011.5 |
| 20260831113039 | 54 | 158 | 0.0 | 0.0 | 0.00 | 0.00 | 0.00 | 87 | 1011.7 |
| 20260831111539 | 54 | 158 | 0.0 | 0.0 | 0.00 | 0.00 | 0.00 | 87 | 1011.7 |
| 20260831110037 | 54 | 158 | 0.0 | 0.0 | 0.00 | 0.00 | 0.00 | 87 | 1011.8 |
| 20260831104537 | 54 | 158 | 0.0 | 0.0 | 0.00 | 0.00 | 0.00 | 87 | 1011.7 |
| 20260831103036 | 54 | 158 | 0.0 | 0.0 | 0.00 | 0.00 | 0.00 | 87 | 1011.8 |
| 20260831101534 | 55 | 158 | 0.0 | 0.0 | 0.00 | 0.00 | 0.00 | 87 | 1011.9 |
| 20260831100046 | 55 | 158 | 0.0 | 0.0 | 0.00 | 0.00 | 0.00 | 87 | 1012.1 |
| 20260831094515 | 55 | 158 | 0.0 | 0.0 | 0.00 | 0.00 | 0.00 | 86 | 1012.3 |
| 20260831093032 | 55 | 158 | 0.0 | 0.0 | 0.00 | 0.00 | 0.00 | 87 | 1012.4 |
| 20260831091511 | 55 | 158 | 0.0 | 0.0 | 0.00 | 0.00 | 0.00 | 87 | 1012.6 |
| 20260831090010 | 55 | 158 | 0.0 | 0.0 | 0.00 | 0.00 | 0.00 | 86 | 1012.6 |
| 20260831084507 | 55 | 158 | 0.0 | 0.0 | 0.00 | 0.00 | 0.00 | 86 | 1012.8 |
| 20260831083006 | 56 | 158 | 0.0 | 0.0 | 0.00 | 0.00 | 0.00 | 86 | 1012.9 |
| 20260831081504 | 56 | 158 | 0.0 | 0.0 | 0.00 | 0.00 | 0.00 | 86 | 1013.1 |
| 20260831080003 | 56 | 158 | 0.0 | 0.0 | 0.00 | 0.00 | 0.00 | 86 | 1013.4 |
| 20260831074549 | 56 | 158 | 0.0 | 0.0 | 0.00 | 0.00 | 0.00 | 85 | 1013.3 |
| 20260831073047 | 57 | 158 | 0.0 | 0.0 | 0.00 | 0.00 | 0.00 | 84 | 1013.3 |
| 20260831071604 | 57 | 158 | 0.0 | 0.0 | 0.00 | 0.00 | 0.00 | 83 | 1013.6 |
| 20260831070041 | 58 | 158 | 0.0 | 0.0 | 0.00 | 0.00 | 0.00 | 82 | 1013.7 |
| 20260831064539 | 58 | 155 | 0.0 | 0.0 | 0.00 | 0.00 | 0.00 | 81 | 1013.8 |
| 20260831063039 | 58 | 155 | 0.0 | 0.0 | 0.00 | 0.00 | 0.00 | 81 | 1014.0 |
| 20260831061534 | 58 | 155 | 0.0 | 1.7 | 0.00 | 0.00 | 0.00 | 80 | 1014.1 |
| 20260831060038 | 59 | 134 | 0.0 | 0.0 | 0.00 | 0.00 | 0.00 | 79 | 1014.2 |
| 20260831054519 | 60 | 134 | 0.0 | 0.9 | 0.00 | 0.00 | 0.00 | 78 | 1014.3 |
| 20260831053039 | 60 | 135 | 0.0 | 0.9 | 0.00 | 0.00 | 0.00 | 77 | 1014.5 |
| 20260831051517 | 60 | 137 | 0.0 | 0.9 | 0.00 | 0.00 | 0.00 | 77 | 1014.8 |
| 20260831050014 | 60 | 94 | 0.0 | 0.9 | 0.00 | 0.00 | 0.00 | 76 | 1014.8 |
| 20260831044513 | 61 | 125 | 0.0 | 0.9 | 0.00 | 0.00 | 0.00 | 75 | 1015.0 |
| 20260831043010 | 61 | 122 | 0.0 | 2.6 | 0.00 | 0.00 | 0.00 | 74 | 1015.1 |
| 20260831041511 | 61 | 144 | 0.0 | 0.9 | 0.00 | 0.00 | 0.00 | 74 | 1015.0 |
| 20260831040008 | 61 | 159 | 0.0 | 0.0 | 0.00 | 0.00 | 0.00 | 72 | 1015.1 |
| 20260831034554 | 62 | 159 | 0.0 | 0.0 | 0.00 | 0.00 | 0.00 | 70 | 1015.1 |
| 20260831033054 | 63 | 158 | 0.0 | 0.0 | 0.00 | 0.00 | 0.00 | 68 | 1015.1 |
| 20260831031547 | 63 | 159 | 0.0 | 0.9 | 0.00 | 0.00 | 0.00 | 67 | 1015.1 |
| 20260831030046 | 64 | 130 | 0.0 | 0.9 | 0.00 | 0.00 | 0.00 | 65 | 1015.2 |
| 20260831024542 | 65 | 189 | 0.0 | 0.9 | 0.00 | 0.00 | 0.00 | 63 | 1015.2 |
| 20260831023041 | 66 | 153 | 0.0 | 2.6 | 0.00 | 0.00 | 0.00 | 61 | 1015.3 |
| 20260831021540 | 66 | 152 | 0.0 | 1.7 | 0.00 | 0.00 | 0.00 | 59 | 1015.3 |
| 20260831020056 | 67 | 128 | 0.0 | 2.6 | 0.00 | 0.00 | 0.00 | 58 | 1015.3 |
| 20260831014515 | 68 | 155 | 0.0 | 1.7 | 0.00 | 0.00 | 0.00 | 57 | 1015.4 |
| 20260831013012 | 69 | 139 | 0.0 | 1.7 | 0.00 | 0.00 | 0.00 | 56 | 1015.5 |
| 20260831011604 | 69 | 175 | 0.0 | 2.6 | 0.00 | 0.00 | 0.00 | 57 | 1015.6 |
| 20260831010052 | 69 | 160 | 0.0 | 1.7 | 0.00 | 0.00 | 0.00 | 56 | 1015.8 |
| 20260831004547 | 70 | 153 | 0.0 | 3.5 | 0.00 | 0.00 | 0.00 | 56 | 1015.9 |
| 20260831003039 | 70 | 188 | 0.0 | 4.3 | 0.00 | 0.00 | 0.00 | 55 | 1016.1 |
| 20260831001538 | 70 | 195 | 0.0 | 2.6 | 0.00 | 0.00 | 0.00 | 55 | 1016.1 |
| 20260831000039 | 70 | 143 | 0.0 | 3.5 | 0.00 | 0.00 | 0.00 | 55 | 1016.2 |
| 20260830234543 | 71 | 170 | 0.0 | 4.3 | 0.00 | 0.00 | 0.00 | 54 | 1016.3 |